Terminal Aerodrome Forecast
Issued by NWS Northern Indiana

Home | Current Version | Previous Version | Text Only | Print | Product List | Glossary On
Versions: 1 2 3 4 5 6 7 8 9 10 11 12 13 14 15 16 17
249
FTUS43 KIWX 052051 AAA
TAFFWA
TAF AMD
KFWA 052051Z 0521/0618 27012KT P6SM BKN028
     FM052200 26007KT P6SM SCT020 BKN035
     FM060300 25005KT P6SM BKN050=

USA.gov is the U.S. government's official web portal to all federal, state and local government web resources and services.